Погода в Богуславке

Украина / Харьковская область     49°28′22″N   37°41′19″E
темп.,
°C
ветер,
м/с
пор.,
м/с
влажн.,
%
обл.,
%
осадки,
мм/ч
давл.,
гПа
погр.,
м
8 марта, пн
пн823:00−1зюз9167187 0.0 1012845
02:00−1зюз7147169 0.0 1011765
05:00−1зюз81481100 0.0 1009670
08:000зюз8137296 0.0 1009827
11:00+3зюз8126396 0.0 10091273
14:00+3з8117198 0.0 10081157
17:00+1зюз51176100 0.1 1009594
20:00−1ссз4790100 0.8 1011456
9 марта, вт
вт923:00−2з3784100 0.0 1011343
02:00−3з478683 0.0 1012266
05:00−3з478561 0.0 1012350
08:00−2сз687880 0.3 1014838
11:00−1сз6761100 0.1 10151210
14:00−1сз6760100 0.3 10161267
17:00−3сз5764100 0.1 10181213
20:00−5ссз577199 0.2 1021887
10 марта, ср
ср1023:00−6ссз576789 0.0 1022867
02:00−7ссз466345 0.0 1024881
05:00−7ссз356767 0.0 1025915
08:00−7ссз456583 0.0 1027801
11:00−4ссз454551 0.0 10271025
14:00−3ссз343847 0.0 10271189
17:00−4с34460 0.0 1027869
20:00−5св34530 0.0 1028409
11 марта, чт
чт1123:00−6св34550 0.0 1028430
02:00−8всв45620 0.0 1029412
05:00−9всв45640 0.0 1030426
08:00−9всв46550 0.0 1031505
11:00−7всв45350 0.0 1031866
14:00−6всв44258 0.0 10311077
17:00−7всв443179 0.0 1030948
20:00−8в463853 0.0 1031736
12 марта, пт
пт1223:00−9в46420 0.0 1032633
02:00−10вюв46450 0.0 1032523
05:00−10вюв35470 0.0 1033419
08:00−9вюв46400 0.0 1034509
11:00−6юв45260 0.0 1033866
14:00−4ююв562318 0.0 10321026
17:00−4юв572693 0.0 1031912
20:00−5ююв692984 0.0 1031753